Location: Campillo
(40.8621°N, 4.2488°W)
Time: 03:28:25
(UTC+00:00)

USA 245 - Pass Details

Date: 02 October 2021
Orbit: 268 x 1012 km, 97.9° (Epoch: 21 October)

Event Time Altitude Azimuth Distance (km) Brightness Sun altitude
Exits shadow 20:38:24 15° 16° (NNE) 2,082 6.3 -30.6°
Drops below altitude 10° 20:39:29 10° 9° (N) 2,435 6.7 -30.8°
Sets 20:42:25 0° 358° (N) 3,491 7.7 -31.3°
